Date String (YYYY-MM-DD hh:mm:ss) UTC,Instrument flags,Ambient pressure (hPa),Sample flow (lpm),Bypass flow (lpm),Sample temperature (°C),Ambient temperature (°C),ASC tube jacket temperature (°C),LED temperature (°C),Box temperature (°C),Sample RH (%),Span deviation,Mass concentration (μg/m³),Mass concentration (μg/m³),Mass concentration (μg/m³)
DateTimeUTC,F1_M11,P_M11,Q1_M11,Q2_M11,T1_M11,T2_M11,T3_M11,T4_M11,T5_M11,U1_M11,ZSPAN_M11,X0_M11,X2_M11,X1_M11
2022-07-21 21:00:00,,0827.3,5.00,0.00,29.3,27.7,00.0,37.9,31.2,22.5,0000.0,0012.36,0005.97,0004.75
2022-07-21 21:01:00,,0827.3,5.01,0.00,29.3,27.1,00.0,37.9,31.1,23.6,0000.0,0013.80,0006.00,0004.78
2022-07-21 21:02:00,,0827.3,5.00,0.00,29.3,27.1,00.0,37.8,31.1,21.8,0000.0,0013.95,0006.00,0004.80
2022-07-21 21:03:00,,0827.2,4.99,0.00,29.2,27.2,00.0,37.9,31.0,21.2,0000.0,0013.80,0006.00,0004.84
2022-07-21 21:04:00,,0827.2,5.00,0.00,29.2,27.3,00.0,37.9,31.1,20.9,0000.0,0013.75,0005.99,0004.87
2022-07-21 21:05:00,,0827.2,5.00,0.00,29.2,27.6,00.0,37.9,31.1,21.9,0000.0,0013.73,0005.99,0004.90
2022-07-21 21:06:00,,0827.2,5.00,0.00,29.3,27.8,00.0,37.9,31.2,22.6,0000.0,0013.66,0006.07,0004.94
2022-07-21 21:07:00,,0827.1,4.99,0.00,29.3,28.0,00.0,37.9,31.3,21.6,0000.0,0013.70,0006.06,0004.97
2022-07-21 21:08:00,,0827.1,5.01,0.00,29.4,28.0,00.0,37.9,31.3,20.1,0000.0,0014.09,0006.10,0004.99
2022-07-21 21:09:00,,0827.3,5.00,0.00,29.3,27.5,00.0,37.9,31.2,20.0,0000.0,0014.63,0006.14,0004.99
2022-07-21 21:10:00,,0827.0,5.00,0.00,29.3,27.2,00.0,37.9,31.2,19.7,0000.0,0015.14,0006.16,0004.98
2022-07-21 21:11:00,,0827.1,5.00,0.00,29.3,27.2,00.0,37.9,31.1,19.8,0000.0,0014.43,0006.16,0004.97
2022-07-21 21:12:00,,0827.0,4.99,0.00,29.3,27.4,00.0,37.9,31.1,20.1,0000.0,0013.19,0006.15,0004.95
2022-07-21 21:13:00,,0827.0,5.00,0.00,29.3,27.6,00.0,37.9,31.2,21.2,0000.0,0013.56,0006.20,0004.95
2022-07-21 21:14:00,,0827.0,5.00,0.00,29.3,27.8,00.0,37.9,31.2,20.6,0000.0,0014.01,0006.19,0004.93
2022-07-21 21:15:00,,0827.1,5.00,0.00,29.3,28.0,00.0,38.0,31.3,20.0,0000.0,0014.54,0006.16,0004.90
2022-07-21 21:16:00,,0827.0,5.00,0.00,29.4,28.0,00.0,37.9,31.4,19.4,0000.0,0014.63,0006.14,0004.84
2022-07-21 21:17:00,,0826.9,5.01,0.00,29.4,27.5,00.0,37.9,31.3,19.5,0000.0,0014.48,0006.09,0004.79
2022-07-21 21:18:00,,0826.9,5.00,0.00,29.3,27.2,00.0,37.9,31.2,19.8,0000.0,0014.51,0006.09,0004.74
2022-07-21 21:19:00,,0826.9,4.99,0.00,29.3,27.2,00.0,37.9,31.1,19.5,0000.0,0014.36,0006.03,0004.71
2022-07-21 21:20:00,,0826.9,5.01,0.00,29.3,27.4,00.0,37.9,31.1,19.4,0000.0,0013.98,0005.94,0004.65
2022-07-21 21:21:00,,0826.9,4.99,0.00,29.3,27.6,00.0,37.9,31.2,18.8,0000.0,0013.29,0005.88,0004.58
2022-07-21 21:22:00,,0826.9,5.00,0.00,29.3,27.8,00.0,37.9,31.2,18.7,0000.0,0012.98,0005.77,0004.49
2022-07-21 21:23:00,,0826.9,5.00,0.00,29.3,28.0,00.0,37.9,31.3,19.5,0000.0,0013.11,0005.70,0004.43
2022-07-21 21:24:00,,0826.9,5.00,0.00,29.4,27.6,00.0,37.9,31.3,20.0,0000.0,0012.54,0005.62,0004.39
2022-07-21 21:25:00,,0826.9,5.00,0.00,29.3,27.1,00.0,37.9,31.2,20.2,0000.0,0013.12,0005.61,0004.35
2022-07-21 21:26:00,,0826.9,5.01,0.00,29.3,27.1,00.0,37.9,31.1,19.2,0000.0,0012.35,0005.60,0004.34
2022-07-21 21:27:00,,0826.9,4.99,0.00,29.2,27.2,00.0,37.9,31.0,19.3,0000.0,0012.58,0005.62,0004.33
2022-07-21 21:28:00,,0826.9,5.00,0.00,29.2,27.4,00.0,37.9,31.1,19.2,0000.0,0013.19,0005.62,0004.32
2022-07-21 21:29:00,,0826.9,4.99,0.00,29.3,27.6,00.0,37.9,31.1,19.7,0000.0,0013.10,0005.58,0004.28
2022-07-21 21:30:00,,0826.9,5.01,0.00,29.3,27.9,00.0,37.9,31.2,19.6,0000.0,0013.45,0005.50,0004.25
2022-07-21 21:31:00,,0827.1,5.00,0.00,29.3,28.1,00.0,38.0,31.3,19.4,0000.0,0013.84,0005.48,0004.22
2022-07-21 21:32:00,,0827.1,5.00,0.00,29.4,28.0,00.0,37.9,31.3,19.3,0000.0,0013.69,0005.45,0004.22
2022-07-21 21:33:00,,0827.0,5.01,0.00,29.3,27.3,00.0,37.9,31.2,19.7,0000.0,0013.43,0005.41,0004.23
2022-07-21 21:34:00,,0827.0,5.00,0.00,29.3,27.0,00.0,37.9,31.1,19.9,0000.0,0013.16,0005.40,0004.24
2022-07-21 21:35:00,,0827.0,5.00,0.00,29.3,27.1,00.0,37.9,31.1,19.3,0000.0,0013.36,0005.38,0004.22
2022-07-21 21:36:00,,0827.0,5.00,0.00,29.2,27.2,00.0,37.9,31.1,19.2,0000.0,0012.58,0005.30,0004.18
2022-07-21 21:37:00,,0827.0,5.00,0.00,29.2,27.4,00.0,37.9,31.1,19.5,0000.0,0013.13,0005.30,0004.15
2022-07-21 21:38:00,,0827.0,5.01,0.00,29.3,27.7,00.0,37.9,31.1,19.9,0000.0,0012.98,0005.32,0004.15
2022-07-21 21:39:00,,0827.0,5.00,0.00,29.3,27.9,00.0,37.9,31.2,20.5,0000.0,0012.57,0005.31,0004.17
2022-07-21 21:40:00,,0827.0,4.99,0.00,29.3,28.1,00.0,38.0,31.3,20.7,0000.0,0012.96,0005.35,0004.20
2022-07-21 21:41:00,,0827.0,5.00,0.00,29.3,27.7,00.0,37.9,31.3,20.6,0000.0,0012.86,0005.41,0004.24
2022-07-21 21:42:00,,0827.3,5.02,0.00,29.3,27.1,00.0,37.9,31.2,20.9,0000.0,0013.15,0005.46,0004.26
2022-07-21 21:43:00,,0827.1,4.99,0.00,29.3,27.0,00.0,37.9,31.1,20.4,0000.0,0014.42,0005.53,0004.29
2022-07-21 21:44:00,,0827.0,5.00,0.00,29.2,27.1,00.0,37.9,31.0,20.1,0000.0,0014.63,0005.55,0004.33
2022-07-21 21:45:00,,0827.0,5.00,0.00,29.2,27.3,00.0,37.9,31.0,20.0,0000.0,0015.00,0005.63,0004.37
2022-07-21 21:46:00,,0827.0,5.00,0.00,29.2,27.5,00.0,37.9,31.1,20.1,0000.0,0015.05,0005.71,0004.39
2022-07-21 21:47:00,,0827.0,4.99,0.00,29.3,27.7,00.0,37.9,31.2,20.0,0000.0,0014.96,0005.76,0004.43
2022-07-21 21:48:00,,0827.0,5.00,0.00,29.3,28.0,00.0,38.0,31.3,19.7,0000.0,0014.82,0005.75,0004.45
2022-07-21 21:49:00,,0827.0,5.00,0.00,29.3,28.2,00.0,38.0,31.3,19.6,0000.0,0015.50,0005.71,0004.45
2022-07-21 21:50:00,,0826.9,5.01,0.00,29.4,28.1,00.0,38.0,31.4,19.8,0000.0,0015.23,0005.69,0004.45
2022-07-21 21:51:00,,0826.9,5.00,0.00,29.4,27.5,00.0,37.9,31.3,19.0,0000.0,0014.87,0005.64,0004.43
2022-07-21 21:52:00,,0826.9,5.00,0.00,29.3,27.1,00.0,37.9,31.2,20.6,0000.0,0015.73,0005.65,0004.41
2022-07-21 21:53:00,,0826.9,5.01,0.00,29.3,27.1,00.0,37.9,31.1,20.4,0000.0,0014.96,0005.62,0004.41
2022-07-21 21:54:00,,0827.1,4.99,0.00,29.3,27.2,00.0,37.9,31.1,20.5,0000.0,0013.40,0005.57,0004.42
2022-07-21 21:55:00,,0826.9,5.00,0.00,29.3,27.4,00.0,37.9,31.1,19.3,0000.0,0013.98,0005.62,0004.42
2022-07-21 21:56:00,,0827.0,5.00,0.00,29.3,27.6,00.0,38.0,31.2,18.9,0000.0,0013.82,0005.61,0004.41
2022-07-21 21:57:00,,0826.9,5.00,0.00,29.3,27.8,00.0,38.0,31.2,19.2,0000.0,0013.91,0005.58,0004.39
2022-07-21 21:58:00,,0827.0,5.01,0.00,29.3,28.0,00.0,38.0,31.3,18.3,0000.0,0014.13,0005.57,0004.37
2022-07-21 21:59:00,,0827.0,4.99,0.00,29.4,28.2,00.0,38.0,31.4,19.6,0000.0,0014.35,0005.52,0004.36
